Location: Sungai Dangang
(2.7500°N, 113.8333°E)
Time: 04:39:39
(UTC+00:00)

Cosmos 968 Rocket - Pass Details

Date: 16 May 2021
Orbit: 741 x 770 km, 74.0° (Epoch: 16 June)

Event Time Altitude Azimuth Distance (km) Brightness Sun altitude
Rises 21:43:51 0° 354° (N) 3,163 6.9 -7.9°
Reaches altitude 10° 21:46:13 10° 358° (N) 2,241 6.2 -7.3°
Maximum altitude 21:51:13 61° 78° (ENE) 839 4.1 -6.1°
Drops below altitude 10° 21:56:15 10° 158° (SSE) 2,252 6.0 -4.9°
Sets 21:58:38 0° 161° (SSE) 3,180 6.7 -4.4°
